Terminal Aerodrome Forecast
Issued by NWS Charleston, WV

Current Version | Previous Version | Graphics & Text | Print | Product List | Glossary On
Versions: 1 2 3 4 5 6 7 8 9 10 11 12 13 14 15 16 17 18 19 20 21 22
605
FTUS41 KRLX 240244 AAA
TAFPKB
TAF AMD
KPKB 240244Z 2403/2424 14007KT P6SM -RA OVC060
     FM240500 12005KT P6SM OVC060
     FM241000 09007KT P6SM -SHRA OVC050
     FM241600 09007KT 6SM -SHRA OVC030
     FM242200 08005KT P6SM OVC040=

USA.gov is the U.S. government's official web portal to all federal, state and local government web resources and services.